STARLINK-2738 (48668 NORAD) Tracking and Keplerian Element Data

This shows tracking and keplerian element data for the satellite.

Feedback or suggestion? Click here.




ElementValue
Catalog48668
NameSTARLINK-2738
Epoch Orbit1157
Epoch Day214.91667824
Epoch Year2021
RAAN92.5221
Inclination53.0538
Eccentricity0.0001645
Argument of Perigee60.1008
Mean Anonmoly158.0545
Mean Motion15.14552947
Decay Rate-0.00923546
L11 48668U 21044AG 21214.91667824 -.00923546 00000-0 -53490-1 0 9999
L22 48668 53.0538 92.5221 0001645 60.1008 158.0545 15.14552947 11575

Live tracking and technical data element details for STARLINK-2738 (NORAD 48668). STARLINK-2738 can be tracked NOW for your location showing map with azimuth and elevation plus other details from your city location.

Track the satellite on the map from your city or location and see movement details for azimuth, elevation, latitude, longitude, range, height, and movement on the map or in text.







IsCatalogInMostPopularTable: catalog: 48668, numindb: 14
Update: records affected: 1



GetName: 48668 STARLINK-2738

Hit Count: updated at: Wed, 04 Aug 2021 00:12:10 GMT